Location: Unspecified
(33.6682°S, 0.0000°E)
Time: 06:40:00
(UTC+00:00)

Tiros 1 despin weight - Pass Details

Date: 25 June 2019
Orbit: 594 x 642 km, 48.2° (Epoch: 17 July)

Event Time Altitude Azimuth Distance (km) Brightness Sun altitude
Rises 07:35:53 0° 354° (N) 2,865 ? 4.7°
Reaches altitude 10° 07:39:05 10° 18° (NNE) 1,981 ? 5.3°
Maximum altitude 07:41:35 15° 52° (NE) 1,707 ? 5.7°
Drops below altitude 10° 07:44:08 10° 85° (E) 2,012 ? 6.2°
Sets 07:47:24 0° 109° (ESE) 2,938 ? 6.7°
